[[{"header":{"parameterUnit":"m.s-1","parameterCategory":1,"la1":30.2991,"la2":30.254,"lo1":-89.0895,"lo2":-89.0444,"dy":0.0017,"dx":0.0017,"nx":28,"ny":28,"refTime":"2024-04-16T21:00:00:Z","depth":0,"parameterNumber":2,"parameterNumberName":"U-component_of_WINDS"},"data":[0,0,0,0,0,0,0,0,0,0,0,0,0,0,0,0,0,0,0,0,0,0,0,0,0,0,0,0,0,0,0,0,0,0,0,0,0,0,0,0,0,0,0,0,0,0,0,0,0,0,0,0,0,0,0,0,0,0,-2.2177,-2.2178,0,-2.2232,-2.2232,-2.2233,-2.221,-2.2209,-2.2208,-2.2207,-2.2264,-2.2266,-2.2269,0,0,0,0,0,0,0,0,0,0,0,0,0,-2.2056,-2.2058,-2.2177,-2.2178,-2.2178,-2.2231,-2.2232,-2.2233,-2.2211,-2.2209,-2.2207,-2.2206,-2.2263,-2.2266,-2.2269,0,0,0,0,0,0,0,0,0,0,0,0,0,-2.2109,-2.2059,-2.2177,-2.2173,-2.2174,-2.2231,-2.2232,-2.2233,-2.2211,-2.2209,-2.2207,-2.2205,-2.2262,-2.2266,-2.227,-2.2334,0,0,-2.2282,-2.2284,0,0,0,0,0,0,0,0,-2.2106,-2.2114,-2.2173,-2.2174,-2.2174,-2.2212,-2.221,-2.2267,-2.2211,-2.2197,-2.2206,-2.2204,-2.2248,-2.2253,-2.2268,-2.2337,-2.2339,-2.2283,-2.2285,-2.2287,-2.2288,0,0,0,0,0,0,0,-2.2102,-2.2111,-2.2199,-2.2174,-2.2175,-2.217,-2.2176,-2.2221,-2.2233,-2.2198,-2.2196,-2.2203,-2.2248,-2.2264,-2.2269,-2.234,-2.2283,-2.2286,-2.2289,-2.229,-2.2467,-2.2469,0,0,0,0,0,0,-2.2098,-2.2108,-2.2197,-2.22,-2.2135,-2.2174,-2.218,-2.2202,-2.2232,-2.2235,-2.2205,-2.2202,-2.2258,-2.2264,-2.2271,-2.2349,-2.2287,-2.2291,-2.2293,-2.2464,-2.2467,-2.247,0,0,0,0,0,0,-2.2096,-2.2107,-2.2195,-2.2154,-2.2165,-2.2178,-2.2203,-2.2204,-2.222,-2.2237,-2.224,-2.2219,-2.2257,-2.2265,-2.2319,-2.2351,-2.2293,-2.2296,-2.2462,-2.2465,-2.2468,-2.2505,0,0,0,0,0,0,-2.2093,-2.2106,-2.213,-2.2155,-2.2167,-2.2241,-2.2205,-2.2207,-2.2227,-2.2224,-2.2251,-2.2254,-2.2256,-2.2313,-2.2323,-2.2355,-2.23,-2.2459,-2.2463,-2.2467,-2.2501,-2.251,-2.2517,0,0,0,0,0,-2.2088,-2.2138,-2.2131,-2.2142,-2.2197,-2.2243,-2.225,-2.2251,-2.2229,-2.2254,-2.2266,-2.2253,-2.2346,-2.2319,-2.233,-2.2364,-2.2457,-2.2462,-2.2467,-2.2498,-2.2508,-2.2516,0,0,0,0,0,0,-2.2116,-2.2141,-2.2133,-2.2192,-2.2216,-2.2239,-2.227,-2.2261,-2.2291,-2.2287,-2.2288,-2.2294,-2.235,-2.2362,-2.2331,-2.2429,-2.2398,-2.2406,-2.2418,-2.2428,-2.2435,-2.2431,-2.2303,0,0,0,0,0,-2.2129,-2.2164,-2.2184,-2.2234,-2.2246,-2.2256,-2.2276,-2.2275,-2.2299,-2.2309,-2.2324,-2.2349,-2.2384,-2.2407,-2.244,-2.2504,-2.251,-2.2533,-2.254,-2.2547,-2.2553,-2.2589,-2.26,-2.2486,-2.2486,-2.2486,0,0,-2.2156,-2.2174,-2.2196,-2.224,-2.2258,-2.2294,-2.2264,-2.2304,-2.2331,-2.2315,-2.2366,-2.2379,-2.2407,-2.2466,-2.2493,-2.2478,-2.2586,-2.2553,-2.2558,-2.2561,-2.2595,-2.2606,-2.2615,-2.2489,-2.2489,-2.2488,0,0,-2.2224,-2.2241,-2.2285,-2.2304,-2.2331,-2.2338,-2.2349,-2.2374,-2.2382,-2.2434,-2.2423,-2.2456,-2.2516,-2.2536,-2.2554,-2.2633,-2.2622,-2.2644,-2.2683,-2.2718,-2.2727,-2.2735,-2.2763,-2.2773,-2.265,-2.265,-2.265,0,-2.2254,-2.2308,-2.2309,-2.235,-2.237,-2.2357,-2.2403,-2.2421,-2.2458,-2.2473,-2.2456,-2.2532,-2.255,-2.2614,-2.2634,-2.2649,-2.2662,-2.264,-2.2726,-2.2734,-2.2741,-2.2768,-2.2779,-2.2652,-2.2652,-2.2652,-2.2652,0,-2.2344,-2.2382,-2.2415,-2.2451,-2.2475,-2.2518,-2.2526,-2.2551,-2.2548,-2.2557,-2.2611,-2.2632,-2.267,-2.2686,-2.2683,-2.2751,-2.2741,-2.2725,-2.2694,-2.2754,-2.278,-2.279,-2.2656,-2.2655,-2.2654,-2.2654,0,0,-2.2429,-2.2467,-2.2479,-2.2496,-2.2526,-2.2556,-2.2599,-2.2636,-2.2657,-2.2684,-2.2721,-2.2773,-2.2759,-2.278,-2.278,-2.2811,-2.2873,-2.2792,-2.2793,-2.2806,-2.2949,-2.2961,-2.2972,-2.2867,-2.2869,-2.287,-2.2947,0,-2.25,-2.2574,-2.2577,-2.2646,-2.2682,-2.2672,-2.271,-2.2733,-2.2743,-2.2776,-2.2787,-2.2824,-2.2803,-2.2815,-2.2846,-2.2859,-2.2902,-2.2854,-2.2902,-2.2903,-2.2894,-2.2986,-2.2997,-2.3068,-2.2957,-2.2959,-2.296,0,-2.2591,-2.2621,-2.2693,-2.272,-2.2735,-2.2769,-2.2804,-2.2835,-2.2862,-2.2867,-2.2892,-2.2888,-2.2934,-2.2903,-2.2966,-2.2933,-2.2954,-2.2963,-2.2966,-2.297,-2.2935,-2.2992,-2.3091,-2.3102,-2.2976,-2.2974,-2.2973,0,-2.2646,-2.2705,-2.2756,-2.277,-2.2803,-2.2827,-2.2842,-2.2867,-2.289,-2.2921,-2.2936,-2.2972,-2.2991,-2.302,-2.3027,-2.3003,-2.3091,-2.306,-2.3097,-2.3097,-2.3115,-2.3113,-2.3218,-2.3129,-2.3128,-2.3128,-2.3128,0,-2.2724,-2.2768,-2.2781,-2.2812,-2.2863,-2.2866,-2.2916,-2.293,-2.2953,-2.2987,-2.2981,-2.3014,-2.3022,-2.3056,-2.3062,-2.3114,-2.3123,-2.313,-2.313,-2.313,-2.3129,-2.3142,-2.3137,-2.3131,-2.313,-2.313,-2.3129,0,-2.2793,-2.2803,-2.2858,-2.2885,-2.2893,-2.2929,-2.2952,-2.2983,-2.2993,-2.3037,-2.3048,-2.3064,-2.3105,-2.3115,-2.3164,-2.3168,-2.323,-2.3226,-2.322,-2.322,-2.3256,-2.3253,-2.3373,-2.3389,-2.3289,-2.329,-2.3291,0,-2.2842,-2.2876,-2.2907,-2.2929,-2.2945,-2.2982,-2.3005,-2.3011,-2.3036,-2.307,-2.3097,-2.3137,-2.3169,-2.3235,-2.3252,-2.329,-2.3287,-2.3327,-2.3292,-2.3291,-2.3288,-2.3285,-2.3289,-2.3333,-2.3334,-2.3335,-2.3335,0,-2.2927,-2.2931,-2.2964,-2.3,-2.3028,-2.3056,-2.3083,-2.3102,-2.3112,-2.314,-2.3182,-2.3207,-2.3257,-2.3297,-2.3336,-2.3352,-2.3346,-2.3346,-2.3357,-2.3356,-2.3351,-2.3354,-2.3237,-2.3343,-2.3342,-2.3342,-2.3341,-2.3341,-2.2987,-2.3018,-2.3045,-2.3082,-2.3104,-2.313,-2.316,-2.3175,-2.3209,-2.325,-2.3252,-2.3298,-2.3326,-2.3377,-2.3396,-2.3432,-2.342,-2.3435,-2.3439,-2.3443,-2.3446,-2.3346,-2.3439,-2.3439,-2.3439,-2.3438,-2.3438,0,-2.3073,-2.309,-2.3124,-2.3163,-2.3193,-2.3185,-2.3215,-2.3241,-2.3281,-2.3308,-2.334,-2.3389,-2.3428,-2.3449,-2.3488,-2.3513,-2.3512,-2.3524,-2.3521,-2.3526,-2.3454,-2.3441,-2.3524,-2.3524,-2.3524,-2.3524,-2.3524,-2.3524,-2.312,-2.3171,-2.3179,-2.3241,-2.3258,-2.3302,-2.332,-2.3345,-2.3366,-2.3421,-2.3453,-2.3467,-2.3492,-2.3533,-2.357,-2.3575,-2.359,-2.3603,-2.3607,-2.3539,-2.353,-2.3522,-2.351,-2.3606,-2.3606,-2.3675,-2.3676,-2.3676]},{"header":{"parameterUnit":"m.s-1","parameterCategory":1,"la1":30.2991,"la2":30.254,"lo1":-89.0895,"lo2":-89.0444,"dy":0.0017,"dx":0.0017,"nx":28,"ny":28,"refTime":"2024-04-16T21:00:00:Z","depth":0,"parameterNumber":3,"parameterNumberName":"V-component_of_WINDS"},"data":[0,0,0,0,0,0,0,0,0,0,0,0,0,0,0,0,0,0,0,0,0,0,0,0,0,0,0,0,0,0,0,0,0,0,0,0,0,0,0,0,0,0,0,0,0,0,0,0,0,0,0,0,0,0,0,0,0,0,2.368,2.368,0,2.3665,2.3664,2.3664,2.3688,2.3689,2.369,2.3691,2.3673,2.3671,2.367,0,0,0,0,0,0,0,0,0,0,0,0,0,2.3729,2.3728,2.368,2.368,2.368,2.3665,2.3664,2.3664,2.3688,2.3689,2.369,2.3691,2.3673,2.3672,2.367,0,0,0,0,0,0,0,0,0,0,0,0,0,2.371,2.3728,2.368,2.369,2.3691,2.3665,2.3664,2.3664,2.3688,2.3689,2.369,2.3692,2.3674,2.3672,2.367,2.3633,0,0,2.3664,2.3663,0,0,0,0,0,0,0,0,2.3711,2.3708,2.3689,2.3689,2.369,2.368,2.3675,2.3654,2.3688,2.3689,2.3691,2.3692,2.3674,2.3672,2.3666,2.3632,2.3631,2.3664,2.3663,2.3662,2.3661,0,0,0,0,0,0,0,2.3713,2.3709,2.3674,2.3688,2.3689,2.3695,2.3693,2.3671,2.3674,2.3689,2.3691,2.3689,2.3674,2.3668,2.3666,2.3631,2.3664,2.3662,2.3661,2.366,2.3567,2.3565,0,0,0,0,0,0,2.3713,2.371,2.3674,2.3674,2.3704,2.3693,2.3691,2.3682,2.3675,2.3675,2.3687,2.369,2.3671,2.3668,2.3665,2.3622,2.3662,2.366,2.3659,2.3568,2.3566,2.3565,0,0,0,0,0,0,2.3714,2.371,2.3675,2.3692,2.3688,2.3691,2.368,2.3681,2.3674,2.3674,2.3674,2.368,2.3671,2.3668,2.3641,2.3622,2.3659,2.3657,2.357,2.3567,2.3566,2.3536,0,0,0,0,0,0,2.3715,2.371,2.3696,2.3692,2.3687,2.3651,2.3678,2.368,2.3671,2.3674,2.3667,2.3667,2.3672,2.3644,2.3639,2.362,2.3656,2.3571,2.3569,2.3566,2.3538,2.3533,2.3528,0,0,0,0,0,2.3717,2.3687,2.3695,2.3691,2.367,2.365,2.3648,2.3654,2.367,2.3656,2.3655,2.3667,2.3625,2.3641,2.3636,2.3616,2.3573,2.3569,2.3566,2.354,2.3534,2.3528,0,0,0,0,0,0,2.3688,2.3687,2.3696,2.3664,2.3657,2.3654,2.3637,2.3647,2.3635,2.3638,2.3647,2.3645,2.3616,2.3613,2.3631,2.358,2.3601,2.3597,2.3583,2.3577,2.3572,2.3573,2.3654,0,0,0,0,0,2.3678,2.3663,2.3662,2.3634,2.3631,2.3634,2.3626,2.3632,2.3625,2.3622,2.362,2.3612,2.3597,2.3587,2.3573,2.3538,2.3537,2.3522,2.3517,2.3513,2.3509,2.3491,2.3485,2.3555,2.3555,2.3555,0,0,2.3657,2.3655,2.3644,2.3629,2.3624,2.3607,2.3632,2.3613,2.36,2.3619,2.3594,2.3592,2.3584,2.3553,2.3539,2.355,2.3489,2.3509,2.3505,2.3504,2.3487,2.3481,2.3475,2.3553,2.3553,2.3554,0,0,2.3611,2.3607,2.3584,2.358,2.3573,2.3576,2.357,2.3566,2.3566,2.3541,2.3554,2.354,2.3513,2.3507,2.3501,2.3454,2.3464,2.3449,2.3422,2.3405,2.3399,2.3394,2.3378,2.3372,2.3445,2.3445,2.3445,0,2.3586,2.3562,2.3571,2.3552,2.3544,2.3561,2.3538,2.3533,2.3521,2.3516,2.3528,2.3496,2.3492,2.346,2.3449,2.3443,2.3437,2.3449,2.3399,2.3394,2.339,2.3375,2.3368,2.3443,2.3443,2.3443,2.3444,0,2.3532,2.3515,2.3497,2.3487,2.3477,2.3456,2.3461,2.3451,2.3458,2.346,2.3434,2.343,2.3416,2.3409,2.3415,2.3378,2.3385,2.3398,2.3419,2.3381,2.3367,2.3361,2.344,2.3441,2.3442,2.3442,0,0,2.3466,2.3462,2.3455,2.3451,2.3445,2.3432,2.3412,2.3399,2.339,2.3382,2.3365,2.3343,2.3355,2.3348,2.3354,2.3338,2.3302,2.3353,2.3353,2.3344,2.3262,2.3253,2.3246,2.3309,2.3308,2.3307,2.3263,0,2.3421,2.3386,2.3394,2.336,2.3345,2.3361,2.3343,2.3337,2.3338,2.3325,2.3326,2.3311,2.3328,2.3324,2.3309,2.3309,2.3286,2.3313,2.3294,2.3293,2.3296,2.3238,2.3228,2.3186,2.3257,2.3256,2.3256,0,2.3363,2.3353,2.3318,2.3316,2.3309,2.3293,2.3283,2.327,2.3264,2.3266,2.3258,2.3267,2.3247,2.3269,2.3241,2.3259,2.3252,2.3251,2.3249,2.3248,2.3272,2.3236,2.3173,2.3167,2.3247,2.3248,2.3248,0,2.3319,2.3298,2.3274,2.327,2.3266,2.3255,2.3253,2.3248,2.324,2.3231,2.3226,2.3214,2.3207,2.3197,2.3203,2.3218,2.3174,2.3196,2.3176,2.3175,2.3166,2.3166,2.3102,2.316,2.316,2.316,2.3161,0,2.3268,2.3245,2.3255,2.324,2.3216,2.3225,2.3201,2.32,2.3196,2.3182,2.3195,2.3181,2.3189,2.3176,2.318,2.3157,2.3153,2.3154,2.3156,2.3153,2.3153,2.3149,2.3152,2.3159,2.3159,2.3159,2.316,0,2.3215,2.322,2.3196,2.3195,2.3194,2.3176,2.3175,2.3162,2.3164,2.3146,2.3142,2.3145,2.313,2.3135,2.3119,2.3122,2.3092,2.3097,2.3095,2.3096,2.3075,2.3077,2.3006,2.2997,2.3061,2.306,2.306,0,2.3182,2.3166,2.3163,2.3155,2.3152,2.3138,2.3131,2.3139,2.3131,2.3123,2.311,2.3097,2.3087,2.3062,2.3063,2.3051,2.3056,2.3032,2.3054,2.3052,2.3056,2.3057,2.3056,2.3027,2.3026,2.3026,2.3025,0,2.3123,2.3127,2.3116,2.3106,2.3096,2.3088,2.3082,2.3074,2.3082,2.3072,2.3057,2.3049,2.3034,2.302,2.3009,2.3007,2.3017,2.3018,2.3013,2.3011,2.301,2.3011,2.3083,2.302,2.302,2.3021,2.3021,2.3021,2.308,2.3066,2.3063,2.305,2.3046,2.304,2.3027,2.3029,2.3017,2.3005,2.3011,2.2994,2.2989,2.2976,2.2972,2.2959,2.2968,2.296,2.2958,2.2957,2.2954,2.3012,2.2957,2.2957,2.2957,2.2957,2.2958,0,2.3022,2.3021,2.3009,2.3,2.299,2.3002,2.2995,2.2986,2.2971,2.2966,2.2956,2.294,2.2927,2.2927,2.2915,2.2905,2.291,2.2902,2.2903,2.2902,2.2946,2.2952,2.2898,2.2898,2.2898,2.2898,2.2898,2.2898,2.2991,2.2969,2.2972,2.2949,2.2948,2.2932,2.2927,2.2922,2.2918,2.2899,2.2889,2.2889,2.2887,2.2875,2.2864,2.2864,2.2859,2.285,2.2852,2.2893,2.2899,2.2905,2.291,2.2848,2.2848,2.2809,2.2809,2.2809]}]]